Mackay Observation History
Time Wind Speed Temp Pressure Rel. Hum Rain
05/10:10pm SSE 14-21 kts 18.7°c 1022.5 hPa 95% 20.0mm
05/10:00pm SSE 12-20 kts 18.7°c 1022.6 hPa 95% 20.0mm
05/09:30pm SE 12-20 kts 19.1°c 1022.7 hPa 96% 18.6mm
05/09:27pm SE 12-20 kts 19.0°c 1022.7 hPa 96% 18.6mm
05/09:16pm SSE 13-20 kts 18.9°c 1022.6 hPa 96% 17.6mm
05/09:00pm SE 12-21 kts 18.9°c 1022.7 hPa 96% 17.4mm
05/08:37pm ESE 11-20 kts 19.1°c 1022.8 hPa 93% 7.6mm
05/08:30pm SSE 12-21 kts 19.7°c 1022.8 hPa 91% 5.4mm
05/08:00pm S 14-21 kts 19.5°c 1022.4 hPa 94% 5.4mm
05/07:30pm SSE 13-19 kts 19.1°c 1022.3 hPa 96% 5.4mm
05/07:00pm SSE 10-16 kts 18.9°c 1022.1 hPa 96% 5.0mm
05/06:30pm SSE 8-14 kts 18.7°c 1022.0 hPa 96% 4.8mm
05/06:00pm S 10-15 kts 18.7°c 1021.4 hPa 96% 2.2mm
05/05:30pm S 13-20 kts 18.9°c 1021.1 hPa 96% 2.2mm
05/05:19pm S 11-17 kts 18.8°c 1021.0 hPa 96% 2.2mm
05/05:00pm S 14-22 kts 18.8°c 1020.9 hPa 96% 2.2mm
05/04:54pm S 15-22 kts 18.8°c 1020.9 hPa 96% 2.0mm
05/04:30pm S 12-19 kts 18.8°c 1020.8 hPa 96% 1.6mm
05/04:23pm S 13-20 kts 18.7°c 1020.7 hPa 97% 1.6mm
05/04:00pm S 12-19 kts 18.9°c 1020.8 hPa 97% 1.6mm
05/03:30pm S 13-20 kts 19.0°c 1020.7 hPa 96% 1.4mm
05/03:10pm SSE 13-19 kts 19.2°c 1020.6 hPa 93% 0.2mm
05/03:00pm S 13-21 kts 19.1°c 1020.6 hPa 92% 0.2mm
05/02:30pm S 14-21 kts 19.2°c 1020.8 hPa 91% 0.2mm
05/02:00pm S 14-20 kts 20.4°c 1020.9 hPa 82% 0.0mm
05/01:32pm S 15-25 kts 20.2°c 1021.0 hPa 84% 0.0mm
05/01:30pm S 15-22 kts 20.2°c 1021.1 hPa 85% 0.0mm
05/01:00pm S 15-24 kts 19.2°c 1021.6 hPa 89% 0.0mm
05/12:41pm SSE 17-27 kts 20.2°c 1021.8 hPa 83% 0.0mm
05/12:30pm SSE 16-25 kts 19.6°c 1021.9 hPa 85% 0.0mm
05/12:26pm S 15-25 kts 19.5°c 1022.0 hPa 84% 0.0mm
05/12:00pm S 15-23 kts 19.9°c 1022.2 hPa 87% 0.0mm
05/11:38am S 15-23 kts 19.6°c 1022.6 hPa 86% 0.0mm
05/11:30am S 15-23 kts 19.3°c 1022.6 hPa 87% 0.0mm
05/11:00am S 17-25 kts 19.5°c 1022.9 hPa 88% 0.0mm
05/10:30am S 15-23 kts 18.8°c 1023.3 hPa 90% 0.0mm
05/10:11am S 15-22 kts 18.6°c 1023.5 hPa 92% 0.0mm
05/10:00am S 15-21 kts 18.1°c 1023.3 hPa 94% 0.0mm
05/09:57am S 15-22 kts 18.2°c 1023.3 hPa 95% 0.0mm
05/09:30am S 14-21 kts 17.6°c 1023.3 hPa 97% 0.0mm
05/09:00am S 13-18 kts 17.0°c 1023.4 hPa 97% 5.4mm
05/08:30am S 12-20 kts 17.2°c 1023.0 hPa 96% 5.2mm
05/08:00am S 13-19 kts 17.3°c 1022.9 hPa 96% 5.0mm
05/07:30am S 14-22 kts 17.6°c 1022.4 hPa 95% 4.6mm
05/07:00am S 13-20 kts 17.4°c 1022.0 hPa 95% 4.6mm
05/06:30am S 14-22 kts 17.6°c 1021.6 hPa 95% 4.4mm
05/06:00am S 14-20 kts 18.1°c 1021.3 hPa 97% 4.4mm
05/05:30am SSE 14-23 kts 18.1°c 1021.0 hPa 97% 4.2mm
05/05:00am S 12-19 kts 18.3°c 1020.7 hPa 97% 4.2mm
05/04:30am SSE 9-15 kts 18.4°c 1020.6 hPa 96% 2.6mm
05/04:00am SSE 12-19 kts 18.7°c 1020.8 hPa 94% 0.2mm
05/03:30am SE 13-20 kts 19.3°c 1020.7 hPa 92% 0.0mm
05/03:14am SSE 10-16 kts 19.1°c 1020.8 hPa 93% 0.0mm
05/03:13am SSE 10-16 kts 19.1°c 1020.7 hPa 93% 0.0mm
05/03:00am SSE 13-20 kts 19.2°c 1020.9 hPa 92% 0.0mm
05/02:53am SSE 13-20 kts 19.3°c 1020.8 hPa 92% 0.0mm
05/02:30am SSE 11-18 kts 19.6°c 1020.9 hPa 90% 0.0mm
05/02:01am SSE 10-16 kts 19.2°c 1021.1 hPa 89% 0.0mm
05/02:00am SSE 11-15 kts 19.2°c 1021.1 hPa 90% 0.0mm
05/01:30am SSE 13-22 kts 19.4°c 1021.4 hPa 93% 0.0mm
05/01:00am S 13-21 kts 19.2°c 1021.7 hPa 92% 0.0mm
05/12:43am S 12-19 kts 19.1°c 1021.9 hPa 93% 0.0mm
05/12:30am S 13-19 kts 18.9°c 1021.9 hPa 92% 0.0mm
05/12:00am SSE 15-23 kts 19.6°c 1022.4 hPa 88% 0.0mm
Time Wind Speed Temp Pressure Rel. Hum Rain
04/11:30pm SSE 14-21 kts 19.8°c 1022.4 hPa 88% 0.0mm
04/11:00pm S 14-21 kts 20.0°c 1022.7 hPa 88% 0.0mm
04/10:50pm S 15-25 kts 20.1°c 1022.7 hPa 87% 0.0mm
04/10:30pm SSE 14-21 kts 20.3°c 1022.9 hPa 86% 0.0mm
04/10:00pm SSE 13-21 kts 20.6°c 1023.2 hPa 85% 0.0mm
04/09:30pm SSE 12-17 kts 20.5°c 1023.4 hPa 87% 0.0mm
04/09:00pm SSE 13-20 kts 20.0°c 1023.3 hPa 87% 0.0mm
04/08:30pm SSE 13-20 kts 19.8°c 1023.2 hPa 90% 0.0mm
04/08:00pm SSE 14-22 kts 20.4°c 1023.1 hPa 83% 0.0mm
04/07:30pm SSE 12-17 kts 20.6°c 1022.8 hPa 83% 0.0mm
04/07:00pm SSE 12-19 kts 20.4°c 1022.7 hPa 83% 0.0mm
04/06:30pm SSE 12-19 kts 20.4°c 1022.5 hPa 82% 0.0mm
04/06:00pm SSE 13-20 kts 20.3°c 1022.0 hPa 81% 0.0mm
04/05:30pm SSE 14-21 kts 20.3°c 1021.6 hPa 81% 0.0mm
04/05:00pm SSE 13-20 kts 20.2°c 1021.4 hPa 76% 0.0mm
04/04:30pm S 13-19 kts 20.6°c 1021.2 hPa 75% 0.0mm
04/04:00pm S 13-19 kts 20.7°c 1021.1 hPa 72% 0.0mm
04/03:30pm SSE 13-20 kts 21.2°c 1020.9 hPa 70% 0.0mm
04/03:00pm S 15-21 kts 21.4°c 1020.8 hPa 69% 0.0mm
04/02:30pm S 14-22 kts 21.4°c 1020.9 hPa 70% 0.0mm
04/02:00pm SSE 14-22 kts 21.2°c 1021.2 hPa 68% 0.0mm
04/01:30pm SSE 14-23 kts 21.5°c 1021.5 hPa 69% 0.0mm
04/01:00pm SSE 14-21 kts 21.3°c 1021.8 hPa 67% 0.0mm
04/12:30pm SSE 13-24 kts 20.8°c 1022.3 hPa 65% 0.0mm
04/12:00pm SSE 14-21 kts 20.5°c 1022.5 hPa 65% 0.0mm
04/11:30am SSE 12-19 kts 20.5°c 1022.9 hPa 65% 0.0mm
04/11:00am S 13-21 kts 19.9°c 1023.1 hPa 62% 0.0mm
04/10:30am S 15-21 kts 19.3°c 1023.3 hPa 60% 0.0mm
04/10:00am S 14-21 kts 18.9°c 1023.5 hPa 61% 0.0mm
04/09:30am S 13-20 kts 18.5°c 1023.5 hPa 61% 0.0mm
04/09:00am S 14-20 kts 17.6°c 1023.5 hPa 60% 0.0mm
04/08:30am S 13-19 kts 16.5°c 1023.0 hPa 59% 0.0mm
04/08:00am SSW 9-15 kts 14.1°c 1022.9 hPa 71% 0.0mm
04/07:30am SW 9-11 kts 11.0°c 1022.7 hPa 76% 0.0mm
04/07:00am SW 9-11 kts 10.6°c 1022.4 hPa 73% 0.0mm
04/06:30am SW 9-10 kts 10.2°c 1021.9 hPa 74% 0.0mm
04/06:00am SW 8-11 kts 9.9°c 1021.7 hPa 74% 0.0mm
04/05:30am SW 7-9 kts 10.0°c 1021.3 hPa 75% 0.0mm
04/05:00am SW 9-11 kts 10.0°c 1020.9 hPa 74% 0.0mm
04/04:30am SW 9-10 kts 10.1°c 1021.0 hPa 74% 0.0mm
04/04:00am SW 8-10 kts 10.5°c 1020.8 hPa 73% 0.0mm
04/03:30am SW 8-10 kts 10.6°c 1020.8 hPa 73% 0.0mm
04/03:00am SW 8-10 kts 10.4°c 1021.1 hPa 76% 0.0mm
04/02:30am SW 7-8 kts 10.2°c 1021.2 hPa 80% 0.0mm
04/02:00am SW 7-10 kts 10.5°c 1021.4 hPa 78% 0.0mm
04/01:30am SW 7-9 kts 11.1°c 1021.6 hPa 76% 0.0mm
04/01:00am SW 7-8 kts 11.6°c 1021.7 hPa 71% 0.0mm
04/12:30am SW 8-10 kts 11.4°c 1021.8 hPa 76% 0.0mm
04/12:00am WSW 7-9 kts 11.3°c 1022.0 hPa 80% 0.0mm
Time Wind Speed Temp Pressure Rel. Hum Rain
03/11:30pm WSW 7-9 kts 11.7°c 1022.1 hPa 78% 0.0mm
03/11:00pm SW 8-9 kts 12.2°c 1022.0 hPa 76% 0.0mm
03/10:30pm SW 9-11 kts 12.5°c 1022.0 hPa 77% 0.0mm
03/10:00pm SW 7-8 kts 13.1°c 1022.2 hPa 76% 0.0mm
03/09:30pm SW 6-8 kts 13.3°c 1022.2 hPa 77% 0.0mm
03/09:00pm SW 7-8 kts 13.9°c 1022.0 hPa 74% 0.0mm
03/08:30pm SW 7-8 kts 14.4°c 1021.9 hPa 73% 0.0mm
03/08:00pm SW 6-7 kts 14.9°c 1021.9 hPa 71% 0.0mm
03/07:30pm SSW 6-8 kts 16.0°c 1021.7 hPa 70% 0.0mm
03/07:00pm S 7-11 kts 17.2°c 1021.3 hPa 58% 0.0mm
03/06:30pm SSE 6-10 kts 17.2°c 1021.0 hPa 59% 0.0mm
03/06:00pm SSE 7-10 kts 17.5°c 1020.7 hPa 53% 0.0mm
03/05:30pm SSE 7-10 kts 17.5°c 1020.4 hPa 51% 0.0mm
03/05:00pm SE 7-11 kts 18.3°c 1020.1 hPa 52% 0.0mm
03/04:30pm SE 7-10 kts 19.0°c 1020.0 hPa 52% 0.0mm
03/04:00pm SE 7-11 kts 19.4°c 1019.9 hPa 48% 0.0mm
03/03:30pm SE 7-11 kts 19.8°c 1019.8 hPa 46% 0.0mm
03/03:00pm SE 8-13 kts 20.2°c 1019.9 hPa 46% 0.0mm
03/02:30pm SE 8-14 kts 20.3°c 1020.1 hPa 47% 0.0mm
03/02:00pm SSE 9-15 kts 20.2°c 1020.3 hPa 47% 0.0mm
03/01:30pm SSE 10-17 kts 20.0°c 1020.5 hPa 46% 0.0mm
03/01:00pm SSE 10-15 kts 19.8°c 1020.8 hPa 49% 0.0mm
03/12:30pm SSE 10-16 kts 19.7°c 1021.3 hPa 46% 0.0mm
03/12:00pm SSE 11-17 kts 19.6°c 1021.7 hPa 48% 0.0mm
03/11:30am SSE 11-19 kts 18.9°c 1022.1 hPa 44% 0.0mm
03/11:00am S 12-17 kts 18.6°c 1022.3 hPa 46% 0.0mm
03/10:30am S 11-19 kts 18.0°c 1022.6 hPa 41% 0.0mm
03/10:00am S 13-19 kts 17.6°c 1022.9 hPa 40% 0.0mm
03/09:30am S 13-21 kts 17.1°c 1023.0 hPa 42% 0.0mm
03/09:00am S 12-19 kts 16.5°c 1022.9 hPa 46% 0.0mm
03/08:30am S 10-16 kts 15.9°c 1022.8 hPa 48% 0.0mm
03/08:00am S 11-17 kts 15.2°c 1022.3 hPa 49% 0.0mm
03/07:30am S 13-19 kts 14.7°c 1022.2 hPa 48% 0.0mm
03/07:00am S 15-22 kts 14.9°c 1021.7 hPa 45% 0.0mm
03/06:30am S 15-21 kts 14.8°c 1021.3 hPa 45% 0.0mm
03/06:00am S 15-23 kts 15.4°c 1020.9 hPa 41% 0.0mm
03/05:33am S 15-25 kts 15.4°c 1020.6 hPa 45% 0.0mm
03/05:30am S 16-25 kts 15.6°c 1020.5 hPa 44% 0.0mm
03/05:00am S 17-27 kts 16.0°c 1020.2 hPa 41% 0.0mm
03/04:43am S 16-26 kts 15.6°c 1020.2 hPa 45% 0.0mm
03/04:30am S 16-24 kts 16.1°c 1020.1 hPa 42% 0.0mm
03/04:00am S 15-22 kts 16.1°c 1020.1 hPa 44% 0.0mm
03/03:30am S 15-23 kts 16.6°c 1020.1 hPa 43% 0.0mm
03/03:00am S 11-17 kts 16.3°c 1020.1 hPa 49% 0.0mm
03/02:30am S 12-18 kts 17.0°c 1020.0 hPa 48% 0.0mm
03/02:00am S 13-20 kts 17.3°c 1020.2 hPa 46% 0.0mm
03/01:30am S 13-18 kts 17.6°c 1020.5 hPa 48% 0.0mm
03/01:00am S 11-17 kts 17.1°c 1020.8 hPa 55% 0.0mm
03/12:30am SW 7-11 kts 15.1°c 1020.8 hPa 74% 0.0mm
03/12:00am SW 7-9 kts 15.6°c 1020.9 hPa 72% 0.0mm